• In United Kingdom
  • List of Countries
  • For 7 days
  • Water Temperature
  • Satellite Maps
  • Weather Map
  • Weather Widgets
  • user-avatar
    Login

    Hourly Weather Konstantyna

    Today, 20 August, Sunday

    Time Temperature Precipitation Wind Pressure Humidity
    00:00 +26°C° 0 mm 1 mps 712 mmHg 63%
    01:00 +26°C° 0 mm 1 mps 712 mmHg 64%
    02:00 +26°C° 0 mm 1 mps 712 mmHg 65%
    03:00 +25°C° 0 mm 1 mps 712 mmHg 66%
    04:00 +25°C° 0 mm 1 mps 712 mmHg 67%
    05:00 +25°C° 0 mm 1 mps 712 mmHg 67%
    06:00 +25°C° 0 mm 1 mps 712 mmHg 67%
    07:00 +26°C° 0 mm 1 mps 712 mmHg 59%
    08:00 +28°C° 0 mm 2 mps 713 mmHg 50%
    09:00 +29°C° 0 mm 2 mps 713 mmHg 42%
    10:00 +31°C° 0 mm 3 mps 713 mmHg 39%
    11:00 +33°C° 0 mm 3 mps 713 mmHg 36%
    12:00 +34°C° 0 mm 4 mps 713 mmHg 34%
    13:00 +34°C° 0 mm 4 mps 713 mmHg 35%
    14:00 +34°C° 0 mm 4 mps 713 mmHg 36%
    15:00 +34°C° 0 mm 5 mps 713 mmHg 37%
    16:00 +32°C° 0 mm 5 mps 713 mmHg 41%
    17:00 +30°C° 0 mm 4 mps 713 mmHg 45%
    18:00 +28°C° 0 mm 4 mps 712 mmHg 49%
    19:00 +27°C° 0 mm 3 mps 713 mmHg 53%
    20:00 +26°C° 0 mm 2 mps 713 mmHg 56%
    21:00 +25°C° 0 mm 2 mps 713 mmHg 60%
    22:00 +25°C° 0 mm 1 mps 713 mmHg 61%
    23:00 +24°C° 0 mm 1 mps 713 mmHg 62%

    Tomorrow, 21 August, Monday

    Time Temperature Precipitation Wind Pressure Humidity
    00:00 +24°C° 0 mm 1 mps 713 mmHg 63%
    01:00 +23°C° 0 mm 1 mps 712 mmHg 64%
    02:00 +23°C° 0 mm 1 mps 712 mmHg 65%
    03:00 +23°C° 0 mm 1 mps 712 mmHg 66%
    04:00 +23°C° 0 mm 1 mps 712 mmHg 64%
    05:00 +23°C° 0 mm 1 mps 712 mmHg 63%
    06:00 +23°C° 0 mm 1 mps 712 mmHg 62%
    07:00 +24°C° 0 mm 1 mps 712 mmHg 55%
    08:00 +26°C° 0 mm 2 mps 712 mmHg 47%
    09:00 +27°C° 0 mm 2 mps 713 mmHg 39%
    10:00 +29°C° 0 mm 3 mps 713 mmHg 36%
    11:00 +30°C° 0 mm 3 mps 713 mmHg 32%
    12:00 +31°C° 0 mm 3 mps 713 mmHg 29%
    13:00 +32°C° 0 mm 4 mps 712 mmHg 29%
    14:00 +32°C° 0 mm 4 mps 712 mmHg 28%
    15:00 +32°C° 0 mm 4 mps 712 mmHg 28%
    16:00 +30°C° 0 mm 4 mps 711 mmHg 32%
    17:00 +29°C° 0 mm 4 mps 711 mmHg 37%
    18:00 +27°C° 0 mm 4 mps 711 mmHg 41%
    19:00 +26°C° 0 mm 3 mps 711 mmHg 46%
    20:00 +25°C° 0 mm 2 mps 712 mmHg 51%
    21:00 +24°C° 0 mm 1 mps 712 mmHg 56%
    22:00 +24°C° 0 mm 1 mps 712 mmHg 58%
    23:00 +23°C° 0 mm 1 mps 711 mmHg 60%

    Day after tomorrow, 22 August, Tuesday

    Time Temperature Precipitation Wind Pressure Humidity
    00:00 +23°C° 0 mm 1 mps 711 mmHg 62%
    01:00 +22°C° 0 mm 1 mps 711 mmHg 63%
    02:00 +22°C° 0 mm 1 mps 711 mmHg 64%
    03:00 +22°C° 0 mm 1 mps 711 mmHg 65%
    04:00 +22°C° 0 mm 1 mps 711 mmHg 62%
    05:00 +22°C° 0 mm 1 mps 711 mmHg 60%
    06:00 +23°C° 0 mm 1 mps 711 mmHg 58%
    07:00 +22°C° 0 mm 0 mps 712 mmHg 49%
    08:00 +24°C° 0 mm 0 mps 712 mmHg 40%
    09:00 +26°C° 0 mm 0 mps 712 mmHg 30%
    10:00 +30°C° 0 mm 1 mps 712 mmHg 27%
    11:00 +31°C° 0 mm 2 mps 712 mmHg 24%
    12:00 +32°C° 0 mm 2 mps 712 mmHg 21%
    13:00 +34°C° 0 mm 3 mps 712 mmHg 22%
    14:00 +34°C° 0 mm 3 mps 711 mmHg 23%
    15:00 +34°C° 0 mm 3 mps 711 mmHg 23%
    16:00 +33°C° 0 mm 3 mps 711 mmHg 29%
    17:00 +32°C° 0 mm 4 mps 711 mmHg 35%
    18:00 +29°C° 0 mm 4 mps 710 mmHg 41%
    19:00 +28°C° 0 mm 3 mps 711 mmHg 47%
    20:00 +27°C° 0 mm 2 mps 711 mmHg 53%
    21:00 +26°C° 0 mm 2 mps 711 mmHg 58%
    22:00 +26°C° 0 mm 1 mps 711 mmHg 60%
    23:00 +25°C° 0 mm 1 mps 711 mmHg 61%

    23 August, Wednesday

    Time Temperature Precipitation Wind Pressure Humidity
    00:00 +25°C° 0 mm 1 mps 711 mmHg 63%
    01:00 +24°C° 0 mm 1 mps 710 mmHg 64%
    02:00 +24°C° 0 mm 1 mps 710 mmHg 65%
    03:00 +24°C° 0 mm 1 mps 710 mmHg 66%
    04:00 +24°C° 0 mm 1 mps 710 mmHg 65%
    05:00 +24°C° 0 mm 1 mps 711 mmHg 63%
    06:00 +25°C° 0 mm 1 mps 711 mmHg 62%
    07:00 +27°C° 0 mm 1 mps 711 mmHg 54%
    08:00 +28°C° 0 mm 1 mps 712 mmHg 47%
    09:00 +30°C° 0 mm 1 mps 712 mmHg 39%
    10:00 +31°C° 0 mm 1 mps 712 mmHg 35%
    11:00 +34°C° 0 mm 2 mps 712 mmHg 30%
    12:00 +35°C° 0 mm 2 mps 712 mmHg 26%
    13:00 +35°C° 0 mm 3 mps 712 mmHg 26%
    14:00 +35°C° 0 mm 3 mps 712 mmHg 26%
    15:00 +36°C° 0 mm 4 mps 711 mmHg 26%
    16:00 +34°C° 0 mm 4 mps 711 mmHg 30%
    17:00 +33°C° 0 mm 4 mps 711 mmHg 34%
    18:00 +32°C° 0 mm 4 mps 711 mmHg 39%
    19:00 +30°C° 0 mm 3 mps 711 mmHg 43%
    20:00 +29°C° 0 mm 2 mps 711 mmHg 47%
    21:00 +28°C° 0 mm 2 mps 712 mmHg 51%
    22:00 +27°C° 0 mm 1 mps 711 mmHg 52%
    23:00 +27°C° 0 mm 1 mps 711 mmHg 53%

    24 August, Thursday

    Time Temperature Precipitation Wind Pressure Humidity
    00:00 +26°C° 0 mm 1 mps 711 mmHg 54%
    01:00 +26°C° 0 mm 1 mps 711 mmHg 54%
    02:00 +26°C° 0 mm 1 mps 711 mmHg 54%
    03:00 +26°C° 0 mm 1 mps 710 mmHg 54%
    04:00 +26°C° 0 mm 1 mps 711 mmHg 52%
    05:00 +26°C° 0 mm 1 mps 711 mmHg 51%
    06:00 +27°C° 0 mm 1 mps 711 mmHg 49%
    07:00 +29°C° 0 mm 1 mps 712 mmHg 44%
    08:00 +30°C° 0 mm 1 mps 712 mmHg 38%
    09:00 +32°C° 0 mm 2 mps 713 mmHg 33%
    10:00 +34°C° 0 mm 2 mps 713 mmHg 30%
    11:00 +36°C° 0 mm 2 mps 712 mmHg 27%
    12:00 +37°C° 0 mm 2 mps 712 mmHg 23%
    13:00 +37°C° 0 mm 3 mps 712 mmHg 23%
    14:00 +37°C° 0 mm 3 mps 712 mmHg 23%
    15:00 +37°C° 0 mm 4 mps 711 mmHg 22%
    16:00 +36°C° 0 mm 4 mps 711 mmHg 26%
    17:00 +35°C° 0 mm 4 mps 711 mmHg 29%
    18:00 +34°C° 0 mm 4 mps 711 mmHg 33%
    19:00 +33°C° 0 mm 3 mps 711 mmHg 36%
    20:00 +31°C° 0 mm 2 mps 711 mmHg 40%
    21:00 +30°C° 0 mm 2 mps 711 mmHg 43%
    22:00 +29°C° 0 mm 1 mps 711 mmHg 44%
    23:00 +29°C° 0 mm 1 mps 711 mmHg 44%

    25 August, Friday

    Time Temperature Precipitation Wind Pressure Humidity
    00:00 +29°C° 0 mm 1 mps 711 mmHg 45%
    01:00 +28°C° 0 mm 1 mps 711 mmHg 44%
    02:00 +28°C° 0 mm 1 mps 710 mmHg 44%
    03:00 +28°C° 0 mm 2 mps 710 mmHg 44%
    04:00 +28°C° 0 mm 2 mps 710 mmHg 44%
    05:00 +28°C° 0 mm 2 mps 711 mmHg 44%
    06:00 +28°C° 0 mm 2 mps 711 mmHg 44%
    07:00 +30°C° 0 mm 2 mps 711 mmHg 39%
    08:00 +32°C° 0 mm 2 mps 712 mmHg 34%
    09:00 +35°C° 0 mm 3 mps 712 mmHg 30%
    10:00 +36°C° 0 mm 3 mps 712 mmHg 27%
    11:00 +37°C° 0 mm 2 mps 711 mmHg 25%
    12:00 +38°C° 0 mm 2 mps 711 mmHg 22%
    13:00 +38°C° 0 mm 3 mps 711 mmHg 22%
    14:00 +38°C° 0 mm 3 mps 711 mmHg 21%
    15:00 +38°C° 0 mm 3 mps 710 mmHg 21%
    16:00 +37°C° 0 mm 3 mps 710 mmHg 24%
    17:00 +36°C° 0 mm 3 mps 710 mmHg 27%
    18:00 +35°C° 0 mm 3 mps 710 mmHg 29%
    19:00 +34°C° 0 mm 2 mps 710 mmHg 31%
    20:00 +32°C° 0 mm 2 mps 710 mmHg 33%
    21:00 +31°C° 0 mm 1 mps 710 mmHg 36%
    22:00 +31°C° 0 mm 1 mps 710 mmHg 36%
    23:00 +30°C° 0 mm 1 mps 710 mmHg 36%
    Show more